Location: Buckland
(65.9785°N, 161.1281°W)
Time: 14:45:18
(UTC+00:00)

Transit 4A - Pass Details

Date: 09 October 2022
Orbit: 871 x 972 km, 66.8° (Epoch: 29 November)

Event Time Altitude Azimuth Distance (km) Brightness Sun altitude
Exits shadow 09:47:58 29° 73° (ENE) 1,577 9.1 -29.9°
Drops below altitude 10° 09:50:44 10° 68° (ENE) 2,555 10.3 -29.9°
Sets 09:53:13 0° 66° (ENE) 3,487 11.1 -30.0°
